Time,TemperatureF,DewpointF,PressureIn,WindDirection,WindDirectionDegrees,WindSpeedMPH,WindSpeedGustMPH,Humidity,HourlyPrecipIn,Conditions,Clouds,dailyrainin,SoftwareType,DateUTC
2014-03-14 00:01:00,16.3,11.0,28.89,WSW,247,5.0,9.0,83,0.00,,,0.00,Rainwise IP-100,2014-03-14 04:01:00,
2014-03-14 00:02:00,16.3,11.0,28.89,SW,225,4.0,9.0,83,0.00,,,0.00,Rainwise IP-100,2014-03-14 04:02:00,
2014-03-14 00:06:00,16.3,11.0,28.89,SW,225,8.0,11.0,83,0.00,,,0.00,Rainwise IP-100,2014-03-14 04:06:00,
2014-03-14 00:10:00,16.4,11.0,28.89,SW,225,5.0,11.0,83,0.00,,,0.00,Rainwise IP-100,2014-03-14 04:10:00,
2014-03-14 00:13:00,16.3,11.0,28.89,SW,225,4.0,11.0,83,0.00,,,0.00,Rainwise IP-100,2014-03-14 04:13:00,
2014-03-14 00:18:00,16.2,11.0,28.89,WSW,247,3.0,9.0,83,0.00,,,0.00,Rainwise IP-100,2014-03-14 04:18:00,
2014-03-14 00:22:00,15.8,11.0,28.88,SSW,202,3.0,7.0,83,0.00,,,0.00,Rainwise IP-100,2014-03-14 04:22:00,
2014-03-14 00:27:00,15.4,14.0,28.88,SSW,202,3.0,6.0,84,0.00,,,0.00,Rainwise IP-100,2014-03-14 04:27:00,
2014-03-14 00:32:00,14.9,14.0,28.87,SSW,202,3.0,7.0,86,0.00,,,0.00,Rainwise IP-100,2014-03-14 04:32:00,
2014-03-14 00:37:00,14.7,14.0,28.87,South,180,3.0,7.0,88,0.00,,,0.00,Rainwise IP-100,2014-03-14 04:37:00,
2014-03-14 00:42:00,14.5,14.0,28.87,SSW,202,3.0,7.0,89,0.00,,,0.00,Rainwise IP-100,2014-03-14 04:42:00,
2014-03-14 00:48:00,14.6,14.0,28.86,SSW,202,4.0,7.0,90,0.00,,,0.00,Rainwise IP-100,2014-03-14 04:48:00,
2014-03-14 00:53:00,14.7,14.0,28.86,SSW,202,2.0,7.0,90,0.00,,,0.00,Rainwise IP-100,2014-03-14 04:53:00,
2014-03-14 00:58:00,14.9,14.0,28.87,South,180,3.0,6.0,91,0.00,,,0.00,Rainwise IP-100,2014-03-14 04:58:00,
2014-03-14 01:03:00,15.2,14.0,28.87,SSW,202,2.0,6.0,91,0.00,,,0.00,Rainwise IP-100,2014-03-14 05:03:00,
2014-03-14 01:08:00,15.3,14.0,28.87,SW,225,5.0,6.0,90,0.00,,,0.00,Rainwise IP-100,2014-03-14 05:08:00,
2014-03-14 01:13:00,15.4,14.0,28.87,South,180,7.0,7.0,90,0.00,,,0.00,Rainwise IP-100,2014-03-14 05:13:00,
2014-03-14 01:18:00,15.5,14.0,28.87,SW,225,4.0,8.0,89,0.00,,,0.00,Rainwise IP-100,2014-03-14 05:18:00,
2014-03-14 01:23:00,15.5,14.0,28.87,SSW,202,3.0,5.0,89,0.00,,,0.00,Rainwise IP-100,2014-03-14 05:23:00,
2014-03-14 01:28:00,15.6,14.0,28.87,SW,225,3.0,8.0,88,0.00,,,0.00,Rainwise IP-100,2014-03-14 05:28:00,
2014-03-14 01:33:00,15.6,14.0,28.87,SW,225,2.0,6.0,87,0.00,,,0.00,Rainwise IP-100,2014-03-14 05:33:00,
2014-03-14 01:38:00,15.7,14.0,28.87,SSW,202,3.0,5.0,86,0.00,,,0.00,Rainwise IP-100,2014-03-14 05:38:00,
2014-03-14 01:43:00,15.7,14.0,28.87,SSW,202,4.0,7.0,85,0.00,,,0.00,Rainwise IP-100,2014-03-14 05:43:00,
2014-03-14 01:49:00,15.8,14.0,28.87,SSW,202,4.0,7.0,84,0.00,,,0.00,Rainwise IP-100,2014-03-14 05:49:00,
2014-03-14 01:54:00,15.8,11.0,28.87,SSW,202,4.0,8.0,83,0.00,,,0.00,Rainwise IP-100,2014-03-14 05:54:00,
2014-03-14 01:59:00,15.9,11.0,28.87,SW,225,5.0,9.0,82,0.00,,,0.00,Rainwise IP-100,2014-03-14 05:59:00,
2014-03-14 02:04:00,15.9,11.0,28.87,SW,225,6.0,7.0,81,0.00,,,0.00,Rainwise IP-100,2014-03-14 06:04:00,
2014-03-14 02:09:00,16.1,11.0,28.87,SW,225,6.0,8.0,80,0.00,,,0.00,Rainwise IP-100,2014-03-14 06:09:00,
2014-03-14 02:14:00,16.2,11.0,28.87,SSW,202,4.0,10.0,80,0.00,,,0.00,Rainwise IP-100,2014-03-14 06:14:00,
2014-03-14 02:19:00,16.4,11.0,28.86,SW,225,6.0,9.0,78,0.00,,,0.00,Rainwise IP-100,2014-03-14 06:19:00,
2014-03-14 02:24:00,16.5,14.0,28.85,SW,225,8.0,10.0,78,0.00,,,0.00,Rainwise IP-100,2014-03-14 06:24:00,
2014-03-14 02:29:00,16.7,14.0,28.85,SW,225,6.0,10.0,77,0.00,,,0.00,Rainwise IP-100,2014-03-14 06:29:00,
2014-03-14 02:34:00,17.0,14.0,28.85,SW,225,4.0,11.0,75,0.00,,,0.00,Rainwise IP-100,2014-03-14 06:34:00,
2014-03-14 02:39:00,17.4,11.0,28.85,SW,225,6.0,7.0,74,0.00,,,0.00,Rainwise IP-100,2014-03-14 06:39:00,
2014-03-14 02:44:00,17.7,11.0,28.85,SW,225,6.0,10.0,72,0.00,,,0.00,Rainwise IP-100,2014-03-14 06:44:00,
2014-03-14 02:50:00,17.9,11.0,28.85,SW,225,2.0,8.0,72,0.00,,,0.00,Rainwise IP-100,2014-03-14 06:50:00,
2014-03-14 02:55:00,18.1,11.0,28.85,SW,225,3.0,7.0,72,0.00,,,0.00,Rainwise IP-100,2014-03-14 06:55:00,
2014-03-14 03:00:00,18.2,11.0,28.85,SW,225,3.0,6.0,73,0.00,,,0.00,Rainwise IP-100,2014-03-14 07:00:00,
2014-03-14 03:05:00,18.5,14.0,28.85,SW,225,1.0,6.0,71,0.00,,,0.00,Rainwise IP-100,2014-03-14 07:05:00,
2014-03-14 03:10:00,18.8,14.0,28.85,WSW,247,2.0,6.0,70,0.00,,,0.00,Rainwise IP-100,2014-03-14 07:10:00,
2014-03-14 03:15:00,18.9,14.0,28.85,SW,225,2.0,4.0,71,0.00,,,0.00,Rainwise IP-100,2014-03-14 07:15:00,
2014-03-14 03:20:00,19.1,14.0,28.84,WSW,247,4.0,4.0,70,0.00,,,0.00,Rainwise IP-100,2014-03-14 07:20:00,
2014-03-14 03:25:00,19.3,14.0,28.84,WSW,247,3.0,4.0,71,0.00,,,0.00,Rainwise IP-100,2014-03-14 07:25:00,
2014-03-14 03:30:00,19.8,14.0,28.84,SSW,202,4.0,8.0,70,0.00,,,0.00,Rainwise IP-100,2014-03-14 07:30:00,
2014-03-14 03:35:00,20.2,14.0,28.84,SW,225,2.0,8.0,70,0.00,,,0.00,Rainwise IP-100,2014-03-14 07:35:00,
2014-03-14 03:40:00,20.7,11.0,28.84,SW,225,4.0,8.0,68,0.00,,,0.00,Rainwise IP-100,2014-03-14 07:40:00,
2014-03-14 03:45:00,21.2,11.0,28.84,SW,225,4.0,8.0,68,0.00,,,0.00,Rainwise IP-100,2014-03-14 07:45:00,
2014-03-14 03:51:00,21.8,14.0,28.83,SSW,202,4.0,8.0,67,0.00,,,0.00,Rainwise IP-100,2014-03-14 07:51:00,
2014-03-14 03:56:00,21.9,14.0,28.83,SSW,202,2.0,7.0,67,0.00,,,0.00,Rainwise IP-100,2014-03-14 07:56:00,
2014-03-14 04:01:00,21.9,14.0,28.83,SW,225,4.0,7.0,68,0.00,,,0.00,Rainwise IP-100,2014-03-14 08:01:00,
2014-03-14 04:06:00,21.9,14.0,28.83,SSW,202,5.0,7.0,68,0.00,,,0.00,Rainwise IP-100,2014-03-14 08:06:00,
2014-03-14 04:11:00,22.0,14.0,28.83,SW,225,3.0,8.0,69,0.00,,,0.00,Rainwise IP-100,2014-03-14 08:11:00,
2014-03-14 04:16:00,22.2,14.0,28.83,South,180,4.0,8.0,69,0.00,,,0.00,Rainwise IP-100,2014-03-14 08:16:00,
2014-03-14 04:21:00,22.4,14.0,28.83,SSW,202,5.0,7.0,69,0.00,,,0.00,Rainwise IP-100,2014-03-14 08:21:00,
2014-03-14 04:26:00,22.5,14.0,28.83,SSW,202,6.0,8.0,70,0.00,,,0.00,Rainwise IP-100,2014-03-14 08:26:00,
2014-03-14 04:31:00,22.7,14.0,28.83,SSW,202,3.0,12.0,70,0.00,,,0.00,Rainwise IP-100,2014-03-14 08:31:00,
2014-03-14 04:36:00,22.8,14.0,28.83,SSW,202,5.0,10.0,70,0.00,,,0.00,Rainwise IP-100,2014-03-14 08:36:00,
2014-03-14 04:41:00,22.9,14.0,28.83,South,180,9.0,9.0,70,0.00,,,0.00,Rainwise IP-100,2014-03-14 08:41:00,
2014-03-14 04:46:00,23.1,16.0,28.83,SW,225,4.0,9.0,71,0.00,,,0.00,Rainwise IP-100,2014-03-14 08:46:00,
2014-03-14 04:52:00,23.3,16.0,28.83,SW,225,7.0,9.0,71,0.00,,,0.00,Rainwise IP-100,2014-03-14 08:52:00,
2014-03-14 04:57:00,23.5,16.0,28.83,SSW,202,7.0,10.0,72,0.00,,,0.00,Rainwise IP-100,2014-03-14 08:57:00,
2014-03-14 05:02:00,23.7,16.0,28.83,SSW,202,5.0,9.0,72,0.00,,,0.00,Rainwise IP-100,2014-03-14 09:02:00,
2014-03-14 05:07:00,23.8,16.0,28.83,SSW,202,9.0,13.0,72,0.00,,,0.00,Rainwise IP-100,2014-03-14 09:07:00,
2014-03-14 05:12:00,23.9,16.0,28.83,SSW,202,7.0,11.0,72,0.00,,,0.00,Rainwise IP-100,2014-03-14 09:12:00,
2014-03-14 05:17:00,23.9,16.0,28.83,SW,225,5.0,11.0,72,0.00,,,0.00,Rainwise IP-100,2014-03-14 09:17:00,
2014-03-14 05:22:00,24.1,16.0,28.82,SSW,202,6.0,12.0,72,0.00,,,0.00,Rainwise IP-100,2014-03-14 09:22:00,
2014-03-14 05:27:00,24.2,16.0,28.83,SW,225,9.0,12.0,72,0.00,,,0.00,Rainwise IP-100,2014-03-14 09:27:00,
2014-03-14 05:32:00,24.4,16.0,28.83,SSW,202,4.0,13.0,72,0.00,,,0.00,Rainwise IP-100,2014-03-14 09:32:00,
2014-03-14 05:37:00,24.5,18.0,28.83,SSW,202,4.0,10.0,72,0.00,,,0.00,Rainwise IP-100,2014-03-14 09:37:00,
2014-03-14 05:42:00,24.6,18.0,28.83,SSW,202,7.0,11.0,73,0.00,,,0.00,Rainwise IP-100,2014-03-14 09:42:00,
2014-03-14 05:47:00,24.8,18.0,28.83,SSW,202,5.0,15.0,72,0.00,,,0.00,Rainwise IP-100,2014-03-14 09:47:00,
2014-03-14 05:53:00,24.9,18.0,28.83,South,180,4.0,9.0,72,0.00,,,0.00,Rainwise IP-100,2014-03-14 09:53:00,
2014-03-14 05:58:00,25.1,18.0,28.82,SSW,202,6.0,11.0,72,0.00,,,0.00,Rainwise IP-100,2014-03-14 09:58:00,
2014-03-14 06:03:00,25.2,18.0,28.82,South,180,6.0,11.0,72,0.00,,,0.00,Rainwise IP-100,2014-03-14 10:03:00,
2014-03-14 06:08:00,25.4,18.0,28.82,SSW,202,4.0,11.0,71,0.00,,,0.00,Rainwise IP-100,2014-03-14 10:08:00,
2014-03-14 06:13:00,25.6,18.0,28.82,SSW,202,9.0,12.0,71,0.00,,,0.00,Rainwise IP-100,2014-03-14 10:13:00,
2014-03-14 06:18:00,25.8,18.0,28.82,South,180,7.0,14.0,71,0.00,,,0.00,Rainwise IP-100,2014-03-14 10:18:00,
2014-03-14 06:23:00,25.9,18.0,28.81,South,180,6.0,11.0,72,0.00,,,0.00,Rainwise IP-100,2014-03-14 10:23:00,
2014-03-14 06:28:00,26.1,18.0,28.81,South,180,6.0,11.0,71,0.00,,,0.00,Rainwise IP-100,2014-03-14 10:28:00,
2014-03-14 06:33:00,26.2,18.0,28.81,SSW,202,9.0,9.0,71,0.00,,,0.00,Rainwise IP-100,2014-03-14 10:33:00,
2014-03-14 06:38:00,26.5,21.0,28.81,South,180,6.0,11.0,72,0.00,,,0.00,Rainwise IP-100,2014-03-14 10:38:00,
2014-03-14 06:43:00,26.6,21.0,28.80,South,180,4.0,9.0,72,0.00,,,0.00,Rainwise IP-100,2014-03-14 10:43:00,
2014-03-14 06:48:00,26.9,21.0,28.80,South,180,6.0,11.0,71,0.00,,,0.00,Rainwise IP-100,2014-03-14 10:48:00,
2014-03-14 06:54:00,27.0,21.0,28.80,South,180,7.0,9.0,71,0.00,,,0.00,Rainwise IP-100,2014-03-14 10:54:00,
2014-03-14 06:59:00,27.2,21.0,28.79,SSW,202,6.0,11.0,71,0.00,,,0.00,Rainwise IP-100,2014-03-14 10:59:00,
2014-03-14 07:04:00,27.5,21.0,28.79,South,180,7.0,11.0,71,0.00,,,0.00,Rainwise IP-100,2014-03-14 11:04:00,
2014-03-14 07:09:00,27.8,21.0,28.79,South,180,6.0,9.0,71,0.00,,,0.00,Rainwise IP-100,2014-03-14 11:09:00,
2014-03-14 07:14:00,28.0,21.0,28.79,South,180,7.0,10.0,71,0.00,,,0.00,Rainwise IP-100,2014-03-14 11:14:00,
2014-03-14 07:19:00,28.4,21.0,28.79,SSW,202,8.0,10.0,70,0.00,,,0.00,Rainwise IP-100,2014-03-14 11:19:00,
2014-03-14 07:24:00,28.9,21.0,28.79,SSW,202,9.0,11.0,71,0.00,,,0.00,Rainwise IP-100,2014-03-14 11:24:00,
2014-03-14 07:29:00,29.3,21.0,28.79,SSW,202,4.0,12.0,69,0.00,,,0.00,Rainwise IP-100,2014-03-14 11:29:00,
2014-03-14 07:34:00,29.7,23.0,28.79,SSW,202,7.0,12.0,68,0.00,,,0.00,Rainwise IP-100,2014-03-14 11:34:00,
2014-03-14 07:39:00,30.0,23.0,28.78,SSW,202,3.0,14.0,68,0.00,,,0.00,Rainwise IP-100,2014-03-14 11:39:00,
2014-03-14 07:44:00,30.5,23.0,28.79,SSW,202,7.0,10.0,68,0.00,,,0.00,Rainwise IP-100,2014-03-14 11:44:00,
2014-03-14 07:49:00,30.9,21.0,28.79,SSW,202,6.0,12.0,67,0.00,,,0.00,Rainwise IP-100,2014-03-14 11:49:00,
2014-03-14 07:55:00,31.4,21.0,28.79,SW,225,6.0,16.0,66,0.00,,,0.00,Rainwise IP-100,2014-03-14 11:55:00,
2014-03-14 08:00:00,31.5,23.0,28.80,SW,225,4.0,15.0,67,0.00,,,0.00,Rainwise IP-100,2014-03-14 12:00:00,
2014-03-14 08:05:00,31.7,23.0,28.80,SW,225,5.0,12.0,66,0.00,,,0.00,Rainwise IP-100,2014-03-14 12:05:00,
2014-03-14 08:10:00,31.9,23.0,28.80,SSW,202,10.0,13.0,66,0.00,,,0.00,Rainwise IP-100,2014-03-14 12:10:00,
2014-03-14 08:15:00,32.2,23.0,28.79,SSW,202,5.0,12.0,66,0.00,,,0.00,Rainwise IP-100,2014-03-14 12:15:00,
2014-03-14 08:20:00,32.5,24.0,28.79,SW,225,4.0,16.0,66,0.00,,,0.00,Rainwise IP-100,2014-03-14 12:20:00,
2014-03-14 08:25:00,32.9,24.0,28.79,SSW,202,11.0,16.0,66,0.00,,,0.00,Rainwise IP-100,2014-03-14 12:25:00,
2014-03-14 08:30:00,33.2,24.0,28.79,South,180,7.0,13.0,67,0.00,,,0.00,Rainwise IP-100,2014-03-14 12:30:00,
2014-03-14 08:35:00,33.5,24.0,28.79,SW,225,10.0,16.0,65,0.00,,,0.00,Rainwise IP-100,2014-03-14 12:35:00,
2014-03-14 08:40:00,33.7,24.0,28.79,South,180,6.0,15.0,66,0.00,,,0.00,Rainwise IP-100,2014-03-14 12:40:00,
2014-03-14 08:45:00,33.9,24.0,28.79,SSW,202,6.0,16.0,65,0.00,,,0.00,Rainwise IP-100,2014-03-14 12:45:00,
2014-03-14 08:50:00,34.3,24.0,28.79,SSW,202,4.0,14.0,65,0.00,,,0.00,Rainwise IP-100,2014-03-14 12:50:00,
2014-03-14 08:56:00,34.6,24.0,28.79,SSW,202,9.0,17.0,65,0.00,,,0.00,Rainwise IP-100,2014-03-14 12:56:00,
2014-03-14 09:01:00,34.9,24.0,28.79,SW,225,7.0,13.0,65,0.00,,,0.00,Rainwise IP-100,2014-03-14 13:01:00,
2014-03-14 09:06:00,35.3,24.0,28.79,SSW,202,5.0,16.0,65,0.00,,,0.00,Rainwise IP-100,2014-03-14 13:06:00,
2014-03-14 09:11:00,35.7,24.0,28.78,SW,225,6.0,19.0,64,0.00,,,0.00,Rainwise IP-100,2014-03-14 13:11:00,
2014-03-14 09:16:00,35.9,24.0,28.78,South,180,12.0,18.0,63,0.00,,,0.00,Rainwise IP-100,2014-03-14 13:16:00,
2014-03-14 09:21:00,36.5,26.0,28.79,SSW,202,9.0,18.0,64,0.00,,,0.00,Rainwise IP-100,2014-03-14 13:21:00,
2014-03-14 09:26:00,37.0,26.0,28.78,SSW,202,11.0,26.0,63,0.00,,,0.00,Rainwise IP-100,2014-03-14 13:26:00,
2014-03-14 09:31:00,37.4,26.0,28.79,SSW,202,12.0,21.0,62,0.00,,,0.00,Rainwise IP-100,2014-03-14 13:31:00,
2014-03-14 09:36:00,37.7,26.0,28.79,SW,225,14.0,20.0,61,0.00,,,0.00,Rainwise IP-100,2014-03-14 13:36:00,
2014-03-14 09:41:00,37.9,26.0,28.78,South,180,14.0,19.0,62,0.00,,,0.00,Rainwise IP-100,2014-03-14 13:41:00,
2014-03-14 09:46:00,38.4,26.0,28.78,SW,225,12.0,21.0,62,0.00,,,0.00,Rainwise IP-100,2014-03-14 13:46:00,
2014-03-14 09:51:00,38.5,28.0,28.78,South,180,12.0,21.0,62,0.00,,,0.00,Rainwise IP-100,2014-03-14 13:51:00,
2014-03-14 09:57:00,38.8,28.0,28.79,South,180,8.0,19.0,61,0.00,,,0.00,Rainwise IP-100,2014-03-14 13:57:00,
2014-03-14 10:02:00,38.9,28.0,28.79,SW,225,9.0,15.0,61,0.00,,,0.00,Rainwise IP-100,2014-03-14 14:02:00,
2014-03-14 10:07:00,39.4,26.0,28.79,SW,225,7.0,17.0,60,0.00,,,0.00,Rainwise IP-100,2014-03-14 14:07:00,
2014-03-14 10:12:00,39.6,28.0,28.79,SW,225,9.0,19.0,60,0.00,,,0.00,Rainwise IP-100,2014-03-14 14:12:00,
2014-03-14 10:17:00,39.7,28.0,28.78,South,180,12.0,16.0,60,0.00,,,0.00,Rainwise IP-100,2014-03-14 14:17:00,
2014-03-14 10:22:00,39.6,28.0,28.78,South,180,5.0,14.0,59,0.00,,,0.00,Rainwise IP-100,2014-03-14 14:22:00,
2014-03-14 10:27:00,39.7,28.0,28.78,SSW,202,6.0,18.0,60,0.00,,,0.00,Rainwise IP-100,2014-03-14 14:27:00,
2014-03-14 10:32:00,39.6,28.0,28.78,SW,225,6.0,18.0,60,0.00,,,0.00,Rainwise IP-100,2014-03-14 14:32:00,
2014-03-14 10:37:00,40.1,28.0,28.78,SW,225,3.0,14.0,60,0.00,,,0.00,Rainwise IP-100,2014-03-14 14:37:00,
2014-03-14 10:42:00,40.9,28.0,28.78,SSW,202,6.0,16.0,59,0.00,,,0.00,Rainwise IP-100,2014-03-14 14:42:00,
2014-03-14 10:47:00,41.4,28.0,28.78,SSW,202,9.0,18.0,58,0.00,,,0.00,Rainwise IP-100,2014-03-14 14:47:00,
2014-03-14 10:52:00,41.8,28.0,28.78,South,180,8.0,22.0,57,0.00,,,0.00,Rainwise IP-100,2014-03-14 14:52:00,
2014-03-14 10:58:00,42.5,29.0,28.78,WSW,247,13.0,24.0,57,0.00,,,0.00,Rainwise IP-100,2014-03-14 14:58:00,
2014-03-14 11:03:00,42.8,29.0,28.78,South,180,11.0,24.0,56,0.00,,,0.00,Rainwise IP-100,2014-03-14 15:03:00,
2014-03-14 11:08:00,43.3,28.0,28.78,SW,225,21.0,21.0,55,0.00,,,0.00,Rainwise IP-100,2014-03-14 15:08:00,
2014-03-14 11:13:00,43.4,28.0,28.78,SSW,202,9.0,21.0,55,0.00,,,0.00,Rainwise IP-100,2014-03-14 15:13:00,
2014-03-14 11:18:00,43.7,29.0,28.78,SW,225,11.0,24.0,55,0.00,,,0.00,Rainwise IP-100,2014-03-14 15:18:00,
2014-03-14 11:23:00,44.1,29.0,28.78,SW,225,11.0,22.0,54,0.00,,,0.00,Rainwise IP-100,2014-03-14 15:23:00,
2014-03-14 11:28:00,44.4,29.0,28.78,SW,225,12.0,19.0,54,0.00,,,0.00,Rainwise IP-100,2014-03-14 15:28:00,
2014-03-14 11:33:00,44.8,29.0,28.77,SSW,202,11.0,25.0,54,0.00,,,0.00,Rainwise IP-100,2014-03-14 15:33:00,
2014-03-14 11:38:00,44.9,29.0,28.77,SSW,202,10.0,24.0,54,0.00,,,0.00,Rainwise IP-100,2014-03-14 15:38:00,
2014-03-14 11:43:00,45.2,29.0,28.76,South,180,15.0,26.0,54,0.00,,,0.00,Rainwise IP-100,2014-03-14 15:43:00,
2014-03-14 11:48:00,45.3,29.0,28.77,WSW,247,14.0,27.0,53,0.06,,,0.01,Rainwise IP-100,2014-03-14 15:48:00,
2014-03-14 11:53:00,45.6,29.0,28.77,SW,225,18.0,23.0,53,0.06,,,0.01,Rainwise IP-100,2014-03-14 15:53:00,
2014-03-14 11:59:00,45.8,29.0,28.77,WSW,247,15.0,23.0,51,0.00,,,0.01,Rainwise IP-100,2014-03-14 15:59:00,
2014-03-14 12:04:00,45.8,29.0,28.76,West,270,17.0,23.0,52,0.00,,,0.01,Rainwise IP-100,2014-03-14 16:04:00,
2014-03-14 12:09:00,46.2,29.0,28.77,WSW,247,16.0,26.0,51,0.00,,,0.01,Rainwise IP-100,2014-03-14 16:09:00,
2014-03-14 12:14:00,46.1,29.0,28.76,SW,225,10.0,25.0,51,0.00,,,0.01,Rainwise IP-100,2014-03-14 16:14:00,
2014-03-14 12:19:00,46.2,29.0,28.76,WSW,247,8.0,22.0,51,0.00,,,0.01,Rainwise IP-100,2014-03-14 16:19:00,
2014-03-14 12:24:00,46.7,29.0,28.77,SSW,202,7.0,22.0,50,0.00,,,0.01,Rainwise IP-100,2014-03-14 16:24:00,
2014-03-14 12:29:00,46.9,29.0,28.76,SSW,202,13.0,22.0,50,0.00,,,0.01,Rainwise IP-100,2014-03-14 16:29:00,
2014-03-14 12:34:00,47.2,29.0,28.75,SW,225,7.0,22.0,50,0.00,,,0.01,Rainwise IP-100,2014-03-14 16:34:00,
2014-03-14 12:39:00,47.2,29.0,28.76,SSW,202,14.0,24.0,50,0.00,,,0.01,Rainwise IP-100,2014-03-14 16:39:00,
2014-03-14 12:44:00,47.4,31.0,28.75,SW,225,9.0,19.0,50,0.00,,,0.01,Rainwise IP-100,2014-03-14 16:44:00,
2014-03-14 12:49:00,47.9,31.0,28.76,SSW,202,7.0,24.0,50,0.00,,,0.01,Rainwise IP-100,2014-03-14 16:49:00,
2014-03-14 12:54:00,47.9,31.0,28.75,SW,225,9.0,23.0,50,0.00,,,0.01,Rainwise IP-100,2014-03-14 16:54:00,
2014-03-14 13:00:00,47.9,31.0,28.75,SW,225,20.0,21.0,49,0.00,,,0.01,Rainwise IP-100,2014-03-14 17:00:00,
2014-03-14 13:05:00,47.8,29.0,28.74,SSW,202,17.0,24.0,49,0.00,,,0.01,Rainwise IP-100,2014-03-14 17:05:00,
2014-03-14 13:10:00,47.5,31.0,28.74,WSW,247,14.0,19.0,50,0.00,,,0.01,Rainwise IP-100,2014-03-14 17:10:00,
2014-03-14 13:15:00,47.7,29.0,28.73,SSW,202,17.0,26.0,49,0.00,,,0.01,Rainwise IP-100,2014-03-14 17:15:00,
2014-03-14 13:20:00,47.8,29.0,28.72,SW,225,16.0,25.0,49,0.00,,,0.01,Rainwise IP-100,2014-03-14 17:20:00,
2014-03-14 13:25:00,47.8,29.0,28.73,SSW,202,18.0,27.0,49,0.00,,,0.01,Rainwise IP-100,2014-03-14 17:25:00,
2014-03-14 13:30:00,47.9,31.0,28.72,SSW,202,16.0,21.0,49,0.00,,,0.01,Rainwise IP-100,2014-03-14 17:30:00,
2014-03-14 13:35:00,48.6,31.0,28.72,WSW,247,8.0,27.0,48,0.00,,,0.01,Rainwise IP-100,2014-03-14 17:35:00,
2014-03-14 13:40:00,49.1,31.0,28.72,SW,225,17.0,27.0,48,0.00,,,0.01,Rainwise IP-100,2014-03-14 17:40:00,
2014-03-14 13:45:00,49.4,29.0,28.71,SW,225,14.0,24.0,46,0.00,,,0.01,Rainwise IP-100,2014-03-14 17:45:00,
2014-03-14 13:50:00,49.6,31.0,28.70,SW,225,12.0,26.0,46,0.00,,,0.01,Rainwise IP-100,2014-03-14 17:50:00,
2014-03-14 13:55:00,49.8,31.0,28.70,South,180,21.0,22.0,46,0.00,,,0.01,Rainwise IP-100,2014-03-14 17:55:00,
2014-03-14 14:01:00,49.5,31.0,28.69,South,180,22.0,25.0,46,0.00,,,0.01,Rainwise IP-100,2014-03-14 18:01:00,
2014-03-14 14:06:00,50.1,31.0,28.69,SSW,202,11.0,24.0,46,0.00,,,0.01,Rainwise IP-100,2014-03-14 18:06:00,
2014-03-14 14:11:00,50.4,31.0,28.69,SW,225,15.0,26.0,45,0.00,,,0.01,Rainwise IP-100,2014-03-14 18:11:00,
2014-03-14 14:16:00,50.7,29.0,28.69,South,180,11.0,24.0,44,0.00,,,0.01,Rainwise IP-100,2014-03-14 18:16:00,
2014-03-14 14:21:00,51.3,29.0,28.68,South,180,13.0,25.0,43,0.00,,,0.01,Rainwise IP-100,2014-03-14 18:21:00,
2014-03-14 14:26:00,51.5,29.0,28.68,SW,225,12.0,29.0,42,0.00,,,0.01,Rainwise IP-100,2014-03-14 18:26:00,
2014-03-14 14:31:00,51.5,31.0,28.67,SW,225,13.0,29.0,43,0.00,,,0.01,Rainwise IP-100,2014-03-14 18:31:00,
2014-03-14 14:36:00,51.3,29.0,28.67,SSW,202,12.0,26.0,42,0.00,,,0.01,Rainwise IP-100,2014-03-14 18:36:00,
2014-03-14 14:41:00,51.7,29.0,28.67,SSW,202,6.0,24.0,41,0.00,,,0.01,Rainwise IP-100,2014-03-14 18:41:00,
2014-03-14 14:46:00,52.1,29.0,28.67,South,180,17.0,21.0,42,0.00,,,0.01,Rainwise IP-100,2014-03-14 18:46:00,
2014-03-14 14:51:00,51.9,29.0,28.67,SW,225,17.0,25.0,40,0.00,,,0.01,Rainwise IP-100,2014-03-14 18:51:00,
2014-03-14 14:56:00,52.2,29.0,28.67,South,180,12.0,22.0,41,0.00,,,0.01,Rainwise IP-100,2014-03-14 18:56:00,
2014-03-14 15:02:00,52.2,29.0,28.67,SW,225,17.0,27.0,41,0.00,,,0.01,Rainwise IP-100,2014-03-14 19:02:00,
2014-03-14 15:07:00,52.1,29.0,28.67,West,270,24.0,24.0,41,0.00,,,0.01,Rainwise IP-100,2014-03-14 19:07:00,
2014-03-14 15:12:00,52.1,29.0,28.66,SSW,202,5.0,30.0,41,0.00,,,0.01,Rainwise IP-100,2014-03-14 19:12:00,
2014-03-14 15:17:00,52.2,29.0,28.66,SW,225,11.0,30.0,41,0.00,,,0.01,Rainwise IP-100,2014-03-14 19:17:00,
2014-03-14 15:22:00,52.5,29.0,28.66,SW,225,11.0,27.0,40,0.00,,,0.01,Rainwise IP-100,2014-03-14 19:22:00,
2014-03-14 15:27:00,52.7,29.0,28.65,South,180,13.0,27.0,40,0.00,,,0.01,Rainwise IP-100,2014-03-14 19:27:00,
2014-03-14 15:32:00,52.8,29.0,28.66,SSW,202,7.0,27.0,40,0.00,,,0.01,Rainwise IP-100,2014-03-14 19:32:00,
2014-03-14 15:37:00,52.9,29.0,28.66,South,180,10.0,21.0,39,0.00,,,0.01,Rainwise IP-100,2014-03-14 19:37:00,
2014-03-14 15:42:00,53.0,29.0,28.66,SW,225,13.0,23.0,39,0.00,,,0.01,Rainwise IP-100,2014-03-14 19:42:00,
2014-03-14 15:47:00,53.2,29.0,28.66,SW,225,9.0,24.0,39,0.00,,,0.01,Rainwise IP-100,2014-03-14 19:47:00,
2014-03-14 15:52:00,52.9,29.0,28.66,SW,225,6.0,19.0,40,0.00,,,0.01,Rainwise IP-100,2014-03-14 19:52:00,
2014-03-14 15:57:00,52.8,29.0,28.65,SSW,202,14.0,23.0,40,0.00,,,0.01,Rainwise IP-100,2014-03-14 19:57:00,
2014-03-14 16:03:00,52.9,29.0,28.64,SSW,202,9.0,19.0,40,0.00,,,0.01,Rainwise IP-100,2014-03-14 20:03:00,
2014-03-14 16:08:00,53.1,29.0,28.64,SW,225,7.0,19.0,40,0.00,,,0.01,Rainwise IP-100,2014-03-14 20:08:00,
2014-03-14 16:13:00,53.6,29.0,28.65,SSW,202,9.0,18.0,38,0.00,,,0.01,Rainwise IP-100,2014-03-14 20:13:00,
2014-03-14 16:18:00,53.6,29.0,28.65,SW,225,8.0,18.0,39,0.00,,,0.01,Rainwise IP-100,2014-03-14 20:18:00,
2014-03-14 16:23:00,53.7,29.0,28.65,SW,225,9.0,19.0,39,0.00,,,0.01,Rainwise IP-100,2014-03-14 20:23:00,
2014-03-14 16:28:00,53.6,29.0,28.64,WSW,247,6.0,17.0,39,0.00,,,0.01,Rainwise IP-100,2014-03-14 20:28:00,
2014-03-14 16:33:00,53.4,29.0,28.64,SW,225,5.0,16.0,39,0.00,,,0.01,Rainwise IP-100,2014-03-14 20:33:00,
2014-03-14 16:38:00,53.6,29.0,28.64,South,180,5.0,15.0,39,0.00,,,0.01,Rainwise IP-100,2014-03-14 20:38:00,
2014-03-14 16:43:00,53.9,29.0,28.64,SSW,202,14.0,17.0,39,0.00,,,0.01,Rainwise IP-100,2014-03-14 20:43:00,
2014-03-14 16:48:00,53.9,29.0,28.64,SW,225,5.0,17.0,38,0.00,,,0.01,Rainwise IP-100,2014-03-14 20:48:00,
2014-03-14 16:53:00,53.8,29.0,28.64,SW,225,13.0,15.0,39,0.00,,,0.01,Rainwise IP-100,2014-03-14 20:53:00,
2014-03-14 16:58:00,53.9,29.0,28.64,SW,225,5.0,13.0,39,0.00,,,0.01,Rainwise IP-100,2014-03-14 20:58:00,
2014-03-14 17:04:00,54.1,29.0,28.64,SW,225,15.0,15.0,38,0.00,,,0.01,Rainwise IP-100,2014-03-14 21:04:00,
2014-03-14 17:09:00,54.2,29.0,28.63,SSW,202,11.0,21.0,38,0.00,,,0.01,Rainwise IP-100,2014-03-14 21:09:00,
2014-03-14 17:14:00,53.9,29.0,28.62,SSW,202,13.0,16.0,39,0.00,,,0.01,Rainwise IP-100,2014-03-14 21:14:00,
2014-03-14 17:19:00,53.8,29.0,28.62,SW,225,7.0,17.0,39,0.00,,,0.01,Rainwise IP-100,2014-03-14 21:19:00,
2014-03-14 17:24:00,53.9,29.0,28.61,SSW,202,9.0,19.0,39,0.00,,,0.01,Rainwise IP-100,2014-03-14 21:24:00,
2014-03-14 17:29:00,53.7,29.0,28.61,SW,225,6.0,21.0,39,0.00,,,0.01,Rainwise IP-100,2014-03-14 21:29:00,
2014-03-14 17:34:00,53.6,29.0,28.61,SW,225,8.0,17.0,40,0.00,,,0.01,Rainwise IP-100,2014-03-14 21:34:00,
2014-03-14 17:39:00,53.7,29.0,28.60,SW,225,7.0,17.0,39,0.00,,,0.01,Rainwise IP-100,2014-03-14 21:39:00,
2014-03-14 17:44:00,53.8,29.0,28.60,SSW,202,13.0,21.0,39,0.00,,,0.01,Rainwise IP-100,2014-03-14 21:44:00,
2014-03-14 17:49:00,53.6,29.0,28.61,SSW,202,9.0,20.0,40,0.00,,,0.01,Rainwise IP-100,2014-03-14 21:49:00,
2014-03-14 17:54:00,53.6,29.0,28.61,SSW,202,11.0,15.0,40,0.00,,,0.01,Rainwise IP-100,2014-03-14 21:54:00,
2014-03-14 17:59:00,53.8,29.0,28.61,WSW,247,11.0,21.0,39,0.00,,,0.01,Rainwise IP-100,2014-03-14 21:59:00,
2014-03-14 18:05:00,53.7,31.0,28.60,South,180,9.0,20.0,41,0.00,,,0.01,Rainwise IP-100,2014-03-14 22:05:00,
2014-03-14 18:10:00,53.7,31.0,28.60,SW,225,18.0,22.0,41,0.00,,,0.01,Rainwise IP-100,2014-03-14 22:10:00,
2014-03-14 18:15:00,54.2,31.0,28.60,SSW,202,24.0,27.0,40,0.00,,,0.01,Rainwise IP-100,2014-03-14 22:15:00,
2014-03-14 18:20:00,54.1,31.0,28.60,SW,225,10.0,24.0,40,0.00,,,0.01,Rainwise IP-100,2014-03-14 22:20:00,
2014-03-14 18:25:00,54.6,31.0,28.61,SW,225,7.0,25.0,39,0.00,,,0.01,Rainwise IP-100,2014-03-14 22:25:00,
2014-03-14 18:30:00,55.0,31.0,28.61,SSW,202,8.0,27.0,39,0.00,,,0.01,Rainwise IP-100,2014-03-14 22:30:00,
2014-03-14 18:35:00,55.0,31.0,28.62,SW,225,9.0,29.0,39,0.00,,,0.01,Rainwise IP-100,2014-03-14 22:35:00,
2014-03-14 18:40:00,55.2,31.0,28.61,SSW,202,11.0,24.0,39,0.00,,,0.01,Rainwise IP-100,2014-03-14 22:40:00,
2014-03-14 18:45:00,55.1,31.0,28.62,SW,225,12.0,22.0,39,0.00,,,0.01,Rainwise IP-100,2014-03-14 22:45:00,
2014-03-14 18:50:00,54.8,31.0,28.62,SSW,202,9.0,21.0,40,0.00,,,0.01,Rainwise IP-100,2014-03-14 22:50:00,
2014-03-14 18:55:00,54.4,31.0,28.62,South,180,16.0,16.0,40,0.00,,,0.01,Rainwise IP-100,2014-03-14 22:55:00,
2014-03-14 19:00:00,54.3,31.0,28.62,SW,225,12.0,19.0,40,0.00,,,0.01,Rainwise IP-100,2014-03-14 23:00:00,
2014-03-14 19:06:00,54.3,31.0,28.62,SW,225,12.0,20.0,41,0.00,,,0.01,Rainwise IP-100,2014-03-14 23:06:00,
2014-03-14 19:11:00,54.2,31.0,28.61,SSW,202,13.0,21.0,41,0.00,,,0.01,Rainwise IP-100,2014-03-14 23:11:00,
2014-03-14 19:16:00,54.3,31.0,28.62,SSW,202,13.0,19.0,41,0.00,,,0.01,Rainwise IP-100,2014-03-14 23:16:00,
2014-03-14 19:21:00,54.1,31.0,28.62,SW,225,14.0,20.0,41,0.00,,,0.01,Rainwise IP-100,2014-03-14 23:21:00,
2014-03-14 19:26:00,53.9,32.0,28.62,SW,225,7.0,16.0,42,0.00,,,0.01,Rainwise IP-100,2014-03-14 23:26:00,
2014-03-14 19:31:00,53.7,32.0,28.62,SW,225,12.0,18.0,43,0.00,,,0.01,Rainwise IP-100,2014-03-14 23:31:00,
2014-03-14 19:36:00,53.5,32.0,28.62,SW,225,7.0,16.0,43,0.00,,,0.01,Rainwise IP-100,2014-03-14 23:36:00,
2014-03-14 19:41:00,53.4,32.0,28.62,SW,225,6.0,14.0,43,0.00,,,0.01,Rainwise IP-100,2014-03-14 23:41:00,
2014-03-14 19:46:00,53.4,32.0,28.62,SSW,202,9.0,15.0,43,0.00,,,0.01,Rainwise IP-100,2014-03-14 23:46:00,
2014-03-14 19:51:00,53.2,32.0,28.61,South,180,7.0,17.0,44,0.00,,,0.01,Rainwise IP-100,2014-03-14 23:51:00,
2014-03-14 19:56:00,52.9,32.0,28.61,South,180,10.0,16.0,45,0.00,,,0.01,Rainwise IP-100,2014-03-14 23:56:00,
2014-03-14 20:01:00,52.9,32.0,28.61,SSW,202,6.0,15.0,44,0.00,,,0.01,Rainwise IP-100,2014-03-15 00:01:00,
2014-03-14 20:07:00,52.7,32.0,28.61,SSW,202,6.0,14.0,45,0.00,,,0.01,Rainwise IP-100,2014-03-15 00:07:00,
2014-03-14 20:12:00,52.4,32.0,28.60,SW,225,11.0,14.0,45,0.00,,,0.01,Rainwise IP-100,2014-03-15 00:12:00,
2014-03-14 20:17:00,52.5,32.0,28.60,South,180,9.0,14.0,46,0.00,,,0.01,Rainwise IP-100,2014-03-15 00:17:00,
2014-03-14 20:22:00,52.5,32.0,28.60,SSW,202,5.0,15.0,46,0.00,,,0.01,Rainwise IP-100,2014-03-15 00:22:00,
2014-03-14 20:27:00,52.4,32.0,28.60,SSW,202,7.0,11.0,46,0.00,,,0.01,Rainwise IP-100,2014-03-15 00:27:00,
2014-03-14 20:32:00,52.3,32.0,28.60,South,180,11.0,15.0,46,0.00,,,0.01,Rainwise IP-100,2014-03-15 00:32:00,
2014-03-14 20:37:00,52.3,32.0,28.60,SW,225,6.0,19.0,47,0.00,,,0.01,Rainwise IP-100,2014-03-15 00:37:00,
2014-03-14 20:42:00,52.6,32.0,28.60,SW,225,6.0,16.0,46,0.00,,,0.01,Rainwise IP-100,2014-03-15 00:42:00,
2014-03-14 20:47:00,52.8,32.0,28.60,SW,225,9.0,17.0,46,0.00,,,0.01,Rainwise IP-100,2014-03-15 00:47:00,
2014-03-14 20:52:00,53.3,32.0,28.61,West,270,12.0,31.0,46,0.00,,,0.01,Rainwise IP-100,2014-03-15 00:52:00,
2014-03-14 20:57:00,54.4,33.0,28.59,SW,225,12.0,34.0,45,0.06,,,0.02,Rainwise IP-100,2014-03-15 00:57:00,
2014-03-14 21:02:00,54.1,33.0,28.61,SSE,157,10.0,25.0,45,0.06,,,0.02,Rainwise IP-100,2014-03-15 01:02:00,
2014-03-14 21:08:00,54.3,33.0,28.60,SW,225,11.0,27.0,45,0.00,,,0.02,Rainwise IP-100,2014-03-15 01:08:00,
2014-03-14 21:13:00,54.1,35.0,28.61,SW,225,9.0,29.0,47,0.00,,,0.02,Rainwise IP-100,2014-03-15 01:13:00,
2014-03-14 21:18:00,53.6,33.0,28.61,West,270,13.0,22.0,47,0.00,,,0.02,Rainwise IP-100,2014-03-15 01:18:00,
2014-03-14 21:23:00,53.1,35.0,28.61,SW,225,19.0,22.0,51,0.00,,,0.02,Rainwise IP-100,2014-03-15 01:23:00,
2014-03-14 21:28:00,52.5,38.0,28.62,SW,225,27.0,41.0,57,0.36,,,0.08,Rainwise IP-100,2014-03-15 01:28:00,
2014-03-14 21:33:00,51.8,38.0,28.61,SW,225,12.0,31.0,58,0.36,,,0.08,Rainwise IP-100,2014-03-15 01:33:00,
2014-03-14 21:38:00,51.3,38.0,28.61,SW,225,14.0,24.0,60,0.00,,,0.08,Rainwise IP-100,2014-03-15 01:38:00,
2014-03-14 21:43:00,50.9,39.0,28.61,WSW,247,18.0,31.0,63,0.06,,,0.09,Rainwise IP-100,2014-03-15 01:43:00,
2014-03-14 21:48:00,50.3,39.0,28.62,WSW,247,16.0,32.0,67,0.06,,,0.09,Rainwise IP-100,2014-03-15 01:48:00,
2014-03-14 21:53:00,49.5,40.0,28.61,SW,225,19.0,28.0,70,0.00,,,0.09,Rainwise IP-100,2014-03-15 01:53:00,
2014-03-14 21:58:00,49.0,40.0,28.60,WSW,247,14.0,27.0,72,0.00,,,0.10,Rainwise IP-100,2014-03-15 01:58:00,
2014-03-14 22:03:00,48.8,40.0,28.60,SW,225,14.0,31.0,72,0.06,,,0.10,Rainwise IP-100,2014-03-15 02:03:00,
2014-03-14 22:09:00,48.3,40.0,28.60,WSW,247,11.0,24.0,73,0.00,,,0.10,Rainwise IP-100,2014-03-15 02:09:00,
2014-03-14 22:14:00,48.0,40.0,28.60,SW,225,12.0,22.0,74,0.00,,,0.10,Rainwise IP-100,2014-03-15 02:14:00,
2014-03-14 22:19:00,47.2,39.0,28.60,SSW,202,7.0,21.0,76,0.00,,,0.10,Rainwise IP-100,2014-03-15 02:19:00,
2014-03-14 22:24:00,47.2,40.0,28.59,WSW,247,9.0,26.0,78,0.06,,,0.11,Rainwise IP-100,2014-03-15 02:24:00,
2014-03-14 22:29:00,46.7,41.0,28.59,SW,225,9.0,27.0,81,0.12,,,0.12,Rainwise IP-100,2014-03-15 02:29:00,
2014-03-14 22:34:00,46.2,41.0,28.59,SW,225,14.0,26.0,84,0.12,,,0.13,Rainwise IP-100,2014-03-15 02:34:00,
2014-03-14 22:39:00,46.0,42.0,28.59,SW,225,15.0,27.0,86,0.12,,,0.14,Rainwise IP-100,2014-03-15 02:39:00,
2014-03-14 22:44:00,45.3,42.0,28.59,SW,225,10.0,24.0,89,0.12,,,0.15,Rainwise IP-100,2014-03-15 02:44:00,
2014-03-14 22:49:00,45.4,42.0,28.58,SW,225,10.0,29.0,89,0.12,,,0.16,Rainwise IP-100,2014-03-15 02:49:00,
2014-03-14 22:54:00,45.4,42.0,28.58,SSW,202,8.0,24.0,89,0.06,,,0.16,Rainwise IP-100,2014-03-15 02:54:00,
2014-03-14 22:59:00,45.2,42.0,28.58,SW,225,9.0,23.0,91,0.00,,,0.16,Rainwise IP-100,2014-03-15 02:59:00,
2014-03-14 23:04:00,45.2,43.0,28.58,WSW,247,10.0,22.0,92,0.06,,,0.17,Rainwise IP-100,2014-03-15 03:04:00,
2014-03-14 23:10:00,44.8,43.0,28.58,West,270,14.0,21.0,92,0.06,,,0.17,Rainwise IP-100,2014-03-15 03:10:00,
2014-03-14 23:15:00,44.8,43.0,28.58,WSW,247,22.0,27.0,92,0.06,,,0.18,Rainwise IP-100,2014-03-15 03:15:00,
2014-03-14 23:20:00,44.7,43.0,28.58,SW,225,11.0,22.0,93,0.12,,,0.19,Rainwise IP-100,2014-03-15 03:20:00,
2014-03-14 23:25:00,44.5,43.0,28.58,SW,225,7.0,26.0,94,0.06,,,0.19,Rainwise IP-100,2014-03-15 03:25:00,
2014-03-14 23:30:00,44.3,42.0,28.57,SSW,202,12.0,18.0,93,0.00,,,0.19,Rainwise IP-100,2014-03-15 03:30:00,
2014-03-14 23:35:00,44.3,42.0,28.57,SW,225,11.0,17.0,94,0.06,,,0.20,Rainwise IP-100,2014-03-15 03:35:00,
2014-03-14 23:40:00,43.9,42.0,28.57,SW,225,14.0,16.0,93,0.06,,,0.20,Rainwise IP-100,2014-03-15 03:40:00,
2014-03-14 23:45:00,43.9,42.0,28.57,South,180,8.0,14.0,94,0.00,,,0.20,Rainwise IP-100,2014-03-15 03:45:00,
2014-03-14 23:50:00,43.8,42.0,28.57,SW,225,9.0,16.0,93,0.00,,,0.20,Rainwise IP-100,2014-03-15 03:50:00,
2014-03-14 23:55:00,43.6,42.0,28.57,SSW,202,12.0,19.0,93,0.00,,,0.20,Rainwise IP-100,2014-03-15 03:55:00,